www.pogodaiklimat.ru

Погода и климат >> Архив погоды >> Россия >> Приморский край >> Лесозаводск


ПОГОДА в Лесозаводске

  • Прогноз погоды в Лесозаводске
  • Монитор погоды в Лесозаводске

АРХИВ ПОГОДЫ в Лесозаводске

Время (UTC), дата Ветер
(напр.,м/с)
 
Видим.   Явления Облачность Т
(С)
Тd
(С)
f
(%)
Тe
(С)
Тes
(С)
Комфортность P
(гПа)
Po
(гПа)
Тmin
(С)
Tmax
(С)
R
(мм)
R24
(мм)
S
(см)
06 13.06 З 2 н/о н/о +22.5 +14.6 61 +26 1004.0 992.0
09 13.06 ЮЗ 2 20 км 10/10 600 м
[Cb cap]
+18.2 +14.1 77 +19 +19 1002.9 990.7 +24.3 1
12 13.06 ЮЗ 2 н/о н/о +15.2 +13.4 89 +15 1004.3 992.0
15 13.06 Ю 2 20 км 10 баллов +15.0 +12.9 87 +15 +15 1003.0 990.7
18 13.06 ЮЗ 3 н/о н/о +15.7 +13.2 85 +15 1003.0 990.7
21 13.06 ЮЗ 2 20 км 10/10 600 м
[Sc]
+15.7 +13.2 85 +16 +16 1003.3 990.9 +14.9 6
00 14.06 ЮЗ 2 н/о н/о +16.6 +13.9 84 +17 +17 1004.0 991.6
03 14.06 ЮЗ 2 20 км 10 баллов +19.9 +15.3 75 +23 +23 комфорт 1005.4 993.3
06 14.06 З 1 н/о н/о +21.7 +17.1 75 +26 1004.0 992.0
09 14.06 С 3 20 км 10/0
[Ci sp]
+18.9 +15.9 83 +20 +20 1005.5 993.3 +22.9 0.0
12 14.06 С 3 н/о н/о +14.8 +12.5 86 +14 1007.1 994.7
15 14.06 С 5 20 км 10 баллов +12.6 +10.8 89 +10 +10 1007.2 994.7
18 14.06 СВ 4 н/о н/о +11.2 +10.3 94 +9 1007.3 994.7
21 14.06 СВ 5 10 км слаб. дождь 10/0 600 м
[As op]
+10.0 +9.4 96 +7 +7 1006.9 994.1 +9.9 4
00 15.06 СВ 7
{11}
н/о н/о +12.1 +10.3 89 +9 +9 1007.3 994.6 +9.9
03 15.06 СВ 7 20 км 10 баллов +13.2 +10.9 86 +11 +11 1008.5 996.0
06 15.06 СВ 7 н/о н/о +13.8 +11.5 86 +11 1008.4 996.0
09 15.06 СВ 6
{10}
20 км 10/10 600 м
[Cb cap]
+13.9 +11.2 84 +12 +12 1008.4 996.0 +14.7 0.3
12 15.06 СВ 5 н/о н/о +13.8 +11.8 88 +12 1009.8 997.3
15 15.06 СВ 3 20 км 10 баллов +13.3 +12.0 92 +12 +12 1009.8 997.3
18 15.06 СВ 3 н/о н/о +12.2 +11.4 95 +10 1008.5 996.0
21 15.06 СВ 4 20 км 10/10 600 м
[Sc]
+11.6 +10.4 92 +9 +9 1008.3 995.6 +11.6
00 16.06 С 3 н/о н/о +12.0 +9.1 82 +10 +10 1008.4 995.7 +11.6
03 16.06 С 3 20 км 7 баллов +17.7 +10.6 63 +18 +23 1008.3 996.0
06 16.06 С 5 н/о н/о +19.2 +8.8 51 +20 1006.9 994.7
09 16.06 СВ 4 20 км 8/3 600 м
[Cu hum Ci sp]
+18.7 +7.5 48 +19 +19 1006.9 994.7 +19.6
12 16.06 СЗ 2 н/о н/о +15.1 +7.9 62 +15 1008.4 996.0
15 16.06 СЗ 1 20 км 4 балла +11.7 +7.0 73 +12 +12 1008.6 996.0
18 16.06 З 1 н/о н/о +8.5 +7.0 90 +8 1010.0 997.3
21 16.06 ЮЗ 1 20 км местами туман поземный ясно +10.0 +8.2 89 +9 +11 1009.2 996.4 +6.8
00 17.06 Ю 1 н/о н/о +17.7 +8.5 55 +19 +19 1009.2 996.8
03 17.06 З 2 20 км 10 баллов +19.9 +8.6 48 +22 +22 комфорт 1009.5 997.3
06 17.06 З 2 н/о н/о +19.6 +9.8 53 +21 1009.5 997.3
09 17.06 СЗ 2 20 км 10/0
[Ac und]
+19.6 +10.0 54 +21 +21 комфорт 1008.2 996.0 +21.5
12 17.06 З 1 н/о н/о +16.8 +10.6 67 +18 1009.6 997.3
15 17.06 З 1 20 км 10 баллов +15.3 +12.1 81 +16 +16 1009.7 997.3
18 17.06 СВ 3 н/о н/о +13.1 +12.0 93 +12 1009.8 997.3
21 17.06 ЮВ 1 20 км 10/10 600 м
[Sc]
+12.7 +12.4 98 +13 +13 1008.5 995.9 +12.4 0.5
00 18.06 В 1 н/о н/о +14.3 +12.8 91 +15 +15 1008.0 995.4
03 18.06 В 1 20 км 9 баллов +18.1 +12.1 68 +19 +22 1006.9 994.7
06 18.06 Ю 1 н/о н/о +19.2 +12.0 63 +21 1005.5 993.3
09 18.06 С 1 20 км 8/5 600 м
[Cb calv Ci fib]
+20.3 +12.3 60 +23 +24 комфорт 1005.4 993.3 +20.6
12 18.06 ЮЗ 1 н/о н/о +15.9 +12.1 78 +17 1005.6 993.3
15 18.06 Ю 1 20 км 4 балла +12.8 +12.5 98 +13 +13 1005.8 993.3
18 18.06 Ю 2 н/о н/о +11.2 +11.2 100 +10 1005.8 993.3
21 18.06 Ю 1 2000 м дымка ясно +11.5 +11.5 100 +11 +13 1004.8 992.2 +10.6
00 19.06 ЮЗ 2 н/о н/о +18.3 +14.3 77 +19 +19 1004.0 991.7
03 19.06 ЮЗ 2 20 км 7 баллов +21.7 +14.1 62 +25 +30 комфорт 1004.1 992.0
06 19.06 Ю 1 н/о н/о +23.9 +14.6 56 +27 1002.6 990.7
09 19.06 Ю 1 20 км 8/3 600 м
[Cu hum Ac trans Ci sp]
+22.7 +14.5 60 +26 +27 жарко 1001.3 989.3 +24.5
12 19.06 З 1 н/о н/о +18.4 +13.7 74 +20 1002.9 990.7
15 19.06 В 2 20 км 10 баллов +17.6 +13.7 78 +18 +18 1001.5 989.3
18 19.06 ЮВ 1 н/о н/о +15.1 +15.1 100 +16 1001.6 989.3
21 19.06 Ю 1 20 км 8/6 600 м
[Sc Ac trans]
+16.7 +13.1 79 +18 +18 1001.4 989.0 +13.0 0.3
00 20.06 Ю 2 н/о н/о +17.9 +14.0 78 +18 +18 1002.0 989.7
03 20.06 ЮЗ 1 20 км 9 баллов +20.9 +14.8 68 +25 +27 комфорт 1002.8 990.7

 

Местоположение метеостанции Лесозаводск (Приморский край, Россия): широта 45.47 долгота 133.30 высота над уровнем моря 105 м.

В архиве по умолчанию представлена погода в Лесозаводске за последнюю неделю. Архивные данные за месяц целиком и за предыдущие месяцы, начиная с января 2011 года, Вы можете получить, выбрав интересующий диапазон дат из раскрывающегося списка и нажав кнопку "Ввод!".


*Определитесь, кто Вы:
робот инопланетянин человек

Внимание! Время в таблицах - всемирное. Для получения местного времени необходимо прибавить поправку, которая равна 10 ч.

Смотрите также архив погоды в соседних городах и на ближайших метеорологических станциях:

Погода в Хулине (Хэйлунцзян, Китай) (43 км)
Погода в Кировском (Приморский край, Россия) (44 км)
Погода в Дальнереченске (Приморский край, Россия) (54 км)
Погода в Малиново (Приморский край, Россия) (70 км)
Погода в Свиягино (Приморский край, Россия) (78 км)
Погода в Спасск-Дальнем (Приморский край, Россия) (101 км)
Погода в Турьем Роге (Приморский край, Россия) (107 км)
Погода в Баоцине (Хэйлунцзян, Китай) (128 км)
Погода в Астраханке (Приморский край, Россия) (132 км)
Погода в Чугуевке (Приморский край, Россия) (152 км)

Пояснения к столбцам:

Ветер - указаны скорость ветра в м/с - средняя за 10 мин, порывы в срок и между сроками (в фигурных скобках) и направление, откуда дует ветер: С - северный, СВ - северо-восточный, В - восточный, ЮВ - юго-восточный, Ю - южный, ЮЗ - юго-западный, З - западный, СЗ - северо-западный.
Видимость - горизонтальная дальность видимости в метрах или километрах. При видимости от 1 до 10 км при отсутствии осадков обычно наблюдается дымка, при ухудшении видимости до 1 км и менее - туман. В сухую погоду видимость может ухудшаться дымом, пылью или мглою.
Явления - указаны атмосферные явления, наблюдавшиеся в срок или в последний час перед сроком; фигурными скобками обозначены явления, наблюдавшиеся между сроками (за 1-3 часа до срока); квадратными скобками обозначены град или гололедные отложения с указанием их диаметра в мм.
Облачность - указаны через наклонную черту общая и нижняя облачность в баллах и высота нижней границы облаков в метрах; квадратными скобками обозначены формы облаков: Ci - перистые, Cs - перисто-слоистые, Cc - перисто-кучевые, Ac - высококучевые, As - высокослоистые, Sc - слоисто-кучевые, Ns - слоисто-дождевые, Cu - кучевые, Cb - кучево-дождевые. Подробнее классификацию облаков см. в Атласе облаков (PDF).
T - Температура воздуха - температура, измеренная на высоте 2 м над землей.
Td - Температура точки росы - температура, при понижении до которой содержащийся в воздухе водяной пар достигнет насыщения.
f - Относительная влажность воздуха - влажноcть воздуха, измеренная на высоте 2 м над землей.
Te - Эффективная температура - температура, которую ощущает одетый по сезону человек в тени. Характеристика душности погоды. При расчете учитывается влияние влажности воздуха и скорости ветра на теплоощущения человека.
Tes - Эффективная температура на солнце - температура, которую ощущает человек, с поправкой на солнечный нагрев. Характеристика знойности погоды. Зависит от высоты солнца над горизонтом, облачности и скорости ветра. Ночью, в пасмурную погоду, а также при ветре 12 м/с и более поправка равна нулю.
P - Атмосферное давление - приведенное к уровню моря атмосферное давление.
Po - Атмосферное давление - измеренное на уровне метеостанции атмосферное давление.
Tmin - Минимальная температура - минимум температуры воздуха на высоте 2 м над землей.
Tmax - Максимальная температура - максимум температуры воздуха на высоте 2 м над землей.
R - Количество осадков - Количество выпавших осадков за период времени, мм. При наведении курсора мыши на число - период времени, за который выпало указанное количество осадков.
R24 - Количество осадков - Количество выпавших осадков за 24 часа, мм.
S - Снежный покров - Высота снежного покрова, см. При наведении курсора мыши на число - состояние снежного покрова и степень покрытия местности в баллах.